Temp
85 93 97 96 78 83 80 83 91 87 87 95 96 89 84 87 80 67 99 99 94 89 83 83 80 80 81 81 80 80 80 80 80 80 80 80 80 80 80 80 81 81 81 81 81 81 81 81 81
97 100 100 91 71 69 80 90 84 88 92 96 95 93 86 80 92 93 94 98 94 89 86 83 80 80 81 81 80 80 80 79 79 80 80 79 80 80 80 80 81 81 81 81 81 81 81 81 81
89 98 90 85 82 64 80 89 90 93 96 95 92 95 90 84 93 94 98 97 94 90 87 80 80 81 81 81 80 80 79 79 80 80 80 80 79 80 80 80 80 81 81 81 81 81 81 81 81
98 98 95 80 78 89 89 91 95 93 95 97 96 83 91 97 94 97 99 98 93 92 88 80 80 81 81 82 79 79 79 79 80 79 79 80 80 79 80 80 81 81 81 80 80 80 80 80 81
101 96 81 62 78 91 94 96 96 92 92 92 93 83 84 94 98 98 98 98 95 93 86 83 80 81 80 80 80 79 79 79 79 79 79 79 79 79 80 80 80 80 80 80 80 80 80 80 81
92 96 81 56 73 93 96 99 97 95 95 93 91 86 85 95 95 97 100 99 99 91 89 83 80 81 80 80 79 79 79 79 79 79 79 79 79 79 80 80 80 80 80 80 80 80 80 80 80
89 88 83 79 73 88 93 101 95 95 94 92 97 83 86 91 97 100 100 101 100 96 90 87 84 82 80 79 79 79 79 79 79 79 79 79 79 79 79 79 80 80 80 80 80 80 80 80 80
96 93 85 87 77 78 96 98 100 97 91 101 101 83 81 92 98 100 101 101 101 97 94 90 87 85 84 82 79 79 79 79 79 79 79 79 79 79 79 78 79 79 79 79 79 80 80 80 80
103 86 82 81 65 84 100 96 101 103 97 98 99 95 95 97 100 99 98 99 99 98 97 95 91 89 91 89 82 79 79 79 79 79 79 78 81 80 80 80 79 79 79 79 79 79 79 79 79
94 86 83 81 87 92 99 99 99 98 95 92 94 96 97 97 97 96 95 94 96 97 98 98 93 93 94 94 82 84 84 82 81 82 80 79 81 83 87 81 79 79 79 79 79 79 79 79 82
95 87 95 93 98 100 98 99 102 97 91 94 90 92 94 95 95 95 96 97 96 98 98 99 94 91 96 90 85 88 86 85 84 84 83 83 86 83 84 80 80 77 79 80 79 79 79 82 84
90 96 97 99 100 98 96 101 98 98 96 100 98 97 95 94 94 95 95 96 97 97 96 98 96 94 93 93 91 91 89 87 87 86 85 84 84 82 82 83 82 80 82 81 80 83 82 84 85
92 95 98 100 99 99 100 97 97 97 101 102 100 97 95 95 95 98 98 98 98 96 94 95 91 90 91 89 89 89 89 89 88 87 87 86 83 82 84 83 85 84 84 83 83 83 83 83 84
97 97 97 99 98 99 96 97 98 98 102 98 97 96 96 96 96 97 97 97 96 95 92 95 93 88 90 87 88 87 87 88 87 87 86 85 84 83 84 83 83 83 84 84 84 83 82 82 85
96 90 94 96 98 96 100 92 93 100 100 97 96 96 96 96 98 96 97 95 97 96 92 89 89 87 86 85 87 87 87 90 86 85 87 85 83 83 84 83 83 83 84 86 84 83 82 81 84
88 89 81 93 96 98 96 82 94 101 98 95 96 96 95 96 97 97 98 96 94 95 89 89 95 89 84 84 85 86 86 87 86 86 87 87 86 85 83 82 82 84 84 83 80 81 80 80 81
84 76 81 87 97 96 94 84 86 100 99 95 95 94 95 95 96 95 97 96 94 93 88 87 88 91 83 82 84 84 83 84 85 86 87 87 86 87 82 82 83 83 83 82 81 79 79 78 78
76 77 83 83 93 94 91 88 92 99 99 97 94 95 95 94 94 96 96 96 93 92 89 86 87 86 83 83 81 83 83 83 84 84 86 88 87 86 82 83 82 83 82 82 82 78 80 78 74
86 85 81 87 95 91 89 90 92 97 97 96 97 95 95 94 97 96 97 96 94 91 88 85 84 82 84 82 82 81 81 82 83 84 85 85 88 87 82 83 82 82 80 80 80 78 78 78 77
85 83 84 90 94 90 87 87 92 95 93 94 94 95 97 96 94 94 94 95 92 90 87 86 85 84 83 83 81 83 83 84 85 85 84 85 85 86 85 82 81 81 81 79 79 77 73 74 75
84 82 83 84 89 90 87 83 87 92 93 92 92 94 95 96 94 93 94 93 94 90 88 87 85 85 84 83 84 83 83 82 83 85 85 86 85 86 83 82 81 80 79 79 77 75 74 70 71
78 88 87 86 83 74 85 70 82 86 86 88 88 90 92 93 94 96 94 93 94 94 92 88 85 83 85 84 82 80 81 81 83 84 86 86 86 85 85 83 82 80 80 78 75 74 73 71 69
81 90 86 85 82 81 80 74 81 88 80 84 86 88 89 91 93 95 93 92 93 94 93 92 91 86 86 86 84 83 82 84 85 85 82 81 84 85 87 85 81 77 76 75 74 73 72 70 69
90 86 85 85 80 69 77 77 77 81 82 82 85 86 86 88 89 89 89 86 87 91 93 91 87 86 87 88 87 85 82 81 80 80 79 81 77 78 77 78 77 76 75 74 73 73 72 70 69
85 79 67 64 65 65 80 76 78 85 85 85 83 82 84 85 85 85 83 80 81 84 87 87 84 82 84 83 84 84 82 82 80 80 76 77 76 76 75 75 74 73 74 72 71 69 66 64 62
80 78 68 57 62 69 81 72 75 86 88 87 84 84 83 83 83 80 80 77 76 79 80 80 78 75 76 76 75 77 77 76 76 76 77 76 75 73 73 73 72 70 69 68 66 65 63 62 60
80 74 82 71 75 71 76 74 81 84 82 82 81 82 80 82 81 80 79 76 74 73 74 76 76 74 75 75 74 73 75 75 74 73 74 74 73 73 71 70 68 68 67 66 65 64 63 63 62
83 87 71 74 59 59 68 68 68 74 76 78 78 80 80 82 83 81 80 79 78 77 76 75 74 73 73 73 73 73 73 74 73 72 69 70 70 69 68 67 67 65 64 64 63 63 62 61 61
79 78 78 76 73 65 59 64 86 76 80 77 79 81 81 83 83 82 83 83 81 79 77 74 73 73 72 72 71 70 69 70 70 69 69 68 68 69 69 69 68 67 65 65 63 63 63 62 62
84 80 79 69 64 71 67 65 85 73 72 77 76 78 82 83 84 85 84 83 81 78 75 72 70 70 71 73 69 67 67 67 68 68 69 70 70 70 70 69 69 69 68 68 67 66 66 64 62
MSLP
1006.99 1006.67 1006.15 1004.79 1004.43 1001.87 1000.01 999.84 1000.00 1000.18 1000.48 1000.89 1001.22 1001.93 1003.23 1003.99 1004.45 1006.12 1006.51 1007.27 1008.87 1010.44 1011.83 1012.46 1013.00 1013.33 1013.62 1013.90 1014.20 1014.54 1014.79 1014.90 1014.97 1015.05 1015.14 1015.25 1015.29 1015.34 1015.38 1015.43 1015.54 1015.62 1015.83 1015.92 1015.98 1015.98 1016.06 1016.15 1016.26
1006.35 1005.61 1004.73 1004.33 1004.10 1001.52 999.58 999.43 1000.20 1000.88 1001.00 1001.35 1001.80 1002.27 1003.32 1004.67 1005.07 1005.68 1006.75 1007.79 1009.10 1010.63 1011.63 1012.54 1013.08 1013.36 1013.69 1014.02 1014.39 1014.69 1014.97 1015.10 1015.22 1015.31 1015.43 1015.47 1015.50 1015.58 1015.59 1015.64 1015.68 1015.77 1015.91 1016.08 1016.11 1016.14 1016.20 1016.26 1016.33
1007.03 1005.70 1004.56 1003.20 1001.94 1001.17 999.26 999.32 999.83 1000.37 1000.90 1000.94 1001.58 1002.44 1003.58 1004.99 1005.54 1006.14 1007.25 1008.28 1009.46 1010.64 1011.50 1012.72 1013.21 1013.50 1013.87 1014.19 1014.56 1014.89 1015.13 1015.30 1015.42 1015.55 1015.66 1015.68 1015.78 1015.82 1015.82 1015.81 1015.82 1015.91 1016.06 1016.21 1016.30 1016.32 1016.28 1016.23 1016.17
1005.24 1003.99 1003.63 1002.70 1000.81 999.46 999.17 999.25 999.34 999.92 1000.70 1001.37 1001.54 1003.52 1004.97 1005.19 1005.84 1006.67 1007.56 1008.54 1009.70 1010.57 1011.70 1013.05 1013.39 1013.66 1013.93 1014.30 1014.82 1015.09 1015.27 1015.53 1015.64 1015.75 1015.89 1015.93 1015.98 1016.05 1016.06 1016.08 1016.00 1016.11 1016.26 1016.39 1016.45 1016.46 1016.43 1016.34 1016.23
1004.13 1003.29 1002.53 1003.73 1000.69 999.38 999.42 999.17 999.25 999.81 1000.75 1001.81 1002.19 1004.14 1005.29 1005.82 1006.37 1007.04 1007.69 1008.67 1009.41 1010.41 1012.12 1013.09 1013.58 1013.80 1014.15 1014.47 1014.90 1015.18 1015.44 1015.69 1015.78 1015.93 1016.10 1016.10 1016.14 1016.18 1016.22 1016.22 1016.19 1016.18 1016.29 1016.35 1016.50 1016.54 1016.50 1016.45 1016.37
1003.11 1001.73 1001.91 1004.38 1001.68 999.27 998.95 998.46 998.74 999.51 1000.16 1001.37 1002.29 1003.91 1005.60 1006.41 1006.90 1007.25 1007.78 1008.39 1009.05 1010.56 1011.85 1013.12 1013.68 1013.93 1014.23 1014.62 1015.01 1015.36 1015.62 1015.85 1015.90 1016.07 1016.18 1016.21 1016.20 1016.22 1016.25 1016.28 1016.27 1016.33 1016.42 1016.45 1016.49 1016.51 1016.47 1016.37 1016.29
1002.57 1001.04 1000.66 1001.65 1000.72 999.09 998.90 998.32 998.83 999.17 1000.03 1001.24 1001.88 1003.64 1005.79 1006.41 1006.88 1007.22 1007.61 1008.05 1008.76 1010.18 1011.69 1012.72 1013.43 1013.83 1014.24 1014.68 1015.11 1015.48 1015.77 1015.94 1016.00 1016.09 1016.13 1016.16 1016.24 1016.28 1016.26 1016.30 1016.43 1016.51 1016.55 1016.57 1016.63 1016.56 1016.54 1016.52 1016.34
1001.78 1000.92 1000.14 1000.16 1001.27 1000.28 998.94 998.56 998.93 999.44 1000.65 1001.31 1001.65 1003.36 1005.25 1005.96 1006.57 1007.01 1007.34 1007.87 1008.58 1009.83 1011.15 1012.15 1012.95 1013.49 1013.95 1014.56 1015.01 1015.36 1015.72 1015.92 1016.00 1016.01 1016.04 1016.13 1016.15 1016.23 1016.42 1016.49 1016.47 1016.55 1016.61 1016.66 1016.66 1016.68 1016.58 1016.45 1016.24
1001.44 1000.97 1000.28 1001.17 1002.03 1000.15 998.56 998.11 998.72 999.32 1000.15 1001.15 1002.02 1003.00 1004.70 1005.84 1006.37 1006.75 1007.09 1007.69 1008.38 1009.14 1010.20 1011.12 1012.21 1012.86 1012.99 1013.67 1014.83 1015.32 1015.57 1015.83 1015.98 1015.95 1016.07 1016.14 1015.89 1015.90 1016.16 1016.29 1016.50 1016.66 1016.71 1016.68 1016.71 1016.64 1016.47 1016.30 1016.22
1001.02 1000.26 1000.56 1002.16 1001.04 999.39 998.76 998.16 998.50 998.73 999.73 1001.43 1002.27 1003.64 1004.90 1005.60 1006.09 1006.45 1007.00 1007.52 1008.18 1008.77 1009.50 1010.32 1011.41 1011.94 1012.02 1012.56 1014.29 1014.66 1015.09 1015.35 1015.53 1015.40 1015.57 1015.74 1015.59 1015.42 1015.27 1016.00 1016.29 1016.43 1016.54 1016.66 1016.59 1016.47 1016.25 1016.32 1016.02
1000.48 999.94 999.46 999.80 999.44 999.06 998.47 998.15 998.53 998.61 999.70 1000.68 1002.28 1003.62 1004.82 1005.50 1005.94 1006.25 1006.71 1007.31 1007.94 1008.67 1009.19 1009.70 1010.77 1011.25 1011.24 1012.36 1013.62 1013.73 1014.06 1014.37 1014.68 1014.81 1014.92 1014.88 1014.58 1014.91 1015.11 1015.65 1015.90 1016.02 1016.17 1016.12 1016.23 1016.11 1015.99 1015.65 1015.38
1000.19 999.81 999.33 998.89 999.33 999.01 998.66 998.50 998.31 998.89 999.99 1000.97 1002.18 1003.41 1004.51 1005.21 1005.69 1006.04 1006.54 1007.10 1007.73 1008.61 1009.32 1009.62 1010.49 1011.10 1011.20 1011.85 1012.45 1012.65 1013.06 1013.46 1013.74 1013.98 1014.29 1014.34 1014.39 1014.66 1014.64 1014.95 1014.98 1015.11 1015.03 1015.20 1015.18 1015.14 1015.05 1014.93 1014.61
1000.02 999.57 999.22 998.97 999.11 999.03 998.93 998.56 998.51 999.00 1000.04 1001.18 1002.26 1003.29 1004.22 1004.85 1005.49 1005.88 1006.42 1007.09 1007.67 1008.57 1009.36 1009.94 1010.62 1011.30 1011.58 1011.87 1011.97 1012.14 1012.28 1012.74 1013.01 1013.34 1013.74 1014.04 1014.16 1014.37 1014.13 1014.16 1014.14 1014.18 1014.16 1014.21 1014.30 1014.16 1014.24 1014.24 1014.41
999.75 999.52 999.28 998.79 998.81 998.91 998.79 998.36 998.77 999.29 1000.12 1001.38 1002.31 1003.14 1003.94 1004.53 1005.11 1005.65 1006.21 1006.93 1007.64 1008.41 1009.46 1010.16 1010.73 1011.44 1011.78 1012.02 1012.20 1012.28 1012.31 1012.41 1012.75 1012.97 1013.15 1013.61 1013.92 1014.01 1014.02 1014.27 1014.19 1014.13 1013.89 1013.82 1013.85 1013.99 1014.23 1014.18 1013.88
1000.08 999.55 999.33 998.94 998.63 998.68 998.62 998.45 998.37 999.24 1000.11 1000.99 1001.89 1002.80 1003.65 1004.25 1004.78 1005.44 1005.95 1006.62 1007.50 1008.18 1009.17 1010.10 1010.68 1011.32 1011.90 1012.21 1012.28 1012.32 1012.43 1012.50 1012.66 1012.92 1012.97 1013.40 1013.78 1014.06 1013.99 1014.27 1014.20 1013.96 1013.72 1013.54 1013.70 1013.92 1014.08 1014.09 1013.80
1000.71 1000.12 999.35 998.64 998.59 998.45 998.63 998.69 998.53 999.30 999.71 1000.67 1001.44 1002.60 1003.52 1003.91 1004.42 1005.16 1005.77 1006.50 1007.30 1007.93 1008.91 1009.73 1010.29 1010.94 1011.67 1012.17 1012.36 1012.39 1012.41 1012.32 1012.39 1012.56 1012.77 1013.03 1013.40 1013.77 1013.93 1014.23 1014.06 1013.62 1013.50 1013.49 1013.78 1013.99 1014.18 1014.20 1013.90
1000.86 999.89 999.20 998.12 997.82 997.94 998.13 998.85 999.66 998.95 999.31 999.98 1000.96 1002.18 1003.09 1003.78 1004.30 1004.90 1005.61 1006.39 1007.14 1007.87 1008.77 1009.52 1009.99 1010.36 1011.14 1011.81 1012.21 1012.29 1012.38 1012.34 1012.39 1012.36 1012.42 1012.55 1012.94 1013.22 1013.63 1013.87 1013.71 1013.52 1013.44 1013.54 1013.65 1013.74 1013.98 1014.08 1013.95
999.92 999.76 998.65 997.74 997.15 997.49 997.56 998.34 998.81 998.69 999.22 999.70 1000.43 1001.72 1002.47 1003.50 1004.14 1004.97 1005.59 1006.19 1006.95 1007.73 1008.37 1009.19 1009.87 1010.24 1010.75 1011.34 1012.00 1012.38 1012.48 1012.47 1012.32 1012.32 1012.29 1012.17 1012.35 1012.67 1013.11 1013.43 1013.55 1013.38 1013.48 1013.44 1013.43 1013.49 1013.47 1013.80 1014.03
999.24 998.46 998.27 997.31 996.60 997.12 997.62 997.51 997.96 998.67 999.37 999.73 1000.06 1000.86 1001.76 1002.76 1003.80 1004.77 1005.40 1006.15 1006.79 1007.55 1008.21 1008.85 1009.53 1010.04 1010.52 1011.09 1011.61 1012.06 1012.23 1012.15 1012.17 1012.17 1012.05 1012.08 1012.03 1012.14 1012.49 1012.90 1013.17 1013.16 1013.45 1013.50 1013.46 1013.53 1013.66 1013.77 1013.92
999.15 998.17 997.37 996.97 996.66 997.11 997.65 997.92 997.81 998.70 999.48 1000.14 1000.92 1001.03 1001.31 1002.02 1003.22 1004.30 1005.24 1005.85 1006.60 1007.29 1008.03 1008.68 1009.30 1009.87 1010.44 1010.81 1011.19 1011.39 1011.58 1011.57 1011.39 1011.36 1011.32 1011.37 1011.60 1011.76 1012.01 1012.48 1012.73 1012.99 1013.08 1013.10 1013.25 1013.29 1013.57 1013.88 1013.71
998.63 998.31 997.79 997.17 997.12 997.82 998.07 998.20 998.45 999.23 999.98 1000.99 1001.98 1002.17 1002.16 1002.13 1002.76 1003.91 1004.82 1005.62 1006.17 1006.92 1007.65 1008.37 1009.00 1009.54 1010.10 1010.64 1010.95 1011.22 1011.36 1011.32 1011.26 1011.01 1010.79 1010.77 1010.72 1010.97 1011.39 1011.75 1012.23 1012.56 1012.77 1012.83 1012.89 1013.17 1013.43 1013.66 1013.54
998.34 998.47 998.25 997.69 997.49 997.63 998.56 998.39 998.23 998.94 999.99 1001.15 1002.29 1002.69 1002.91 1003.13 1003.32 1003.61 1004.43 1005.10 1005.71 1006.21 1006.92 1007.51 1008.04 1008.72 1009.28 1009.86 1010.45 1010.78 1010.94 1010.92 1010.84 1010.78 1010.54 1010.26 1009.94 1010.47 1010.83 1011.15 1011.74 1012.15 1012.38 1012.40 1012.58 1013.02 1013.35 1013.43 1013.48
998.62 998.42 998.48 998.35 998.05 997.96 997.99 998.51 997.66 998.16 999.84 1001.30 1002.43 1003.25 1003.84 1004.05 1004.04 1004.07 1004.88 1005.98 1006.36 1006.57 1007.04 1007.46 1007.85 1008.53 1008.90 1009.33 1009.86 1010.26 1010.53 1010.66 1010.54 1010.32 1010.42 1010.41 1010.23 1010.33 1010.39 1010.77 1011.53 1012.05 1012.34 1012.60 1012.81 1013.02 1013.06 1013.14 1013.44
999.01 998.68 998.60 998.41 998.75 998.29 998.21 998.19 997.55 997.68 999.23 1001.34 1002.97 1003.78 1004.76 1005.14 1005.49 1005.87 1006.58 1007.43 1007.78 1007.71 1007.61 1007.94 1008.43 1008.76 1008.90 1009.32 1009.65 1010.01 1010.43 1010.76 1011.03 1011.05 1011.11 1010.93 1011.43 1011.59 1011.70 1011.73 1012.08 1012.66 1012.81 1012.93 1013.19 1013.32 1013.49 1013.73 1013.92
998.82 998.81 999.05 999.28 998.86 998.11 998.13 998.17 997.90 998.35 999.86 1001.59 1003.24 1004.66 1005.67 1006.19 1006.52 1007.13 1007.97 1008.94 1009.10 1008.74 1008.78 1009.17 1009.67 1009.90 1009.88 1009.97 1010.17 1010.35 1010.64 1011.00 1011.33 1011.43 1011.70 1011.79 1012.20 1012.38 1012.49 1012.66 1013.03 1013.01 1013.18 1013.54 1013.81 1014.01 1014.40 1014.78 1015.09
998.27 998.66 998.30 998.05 997.83 997.53 997.63 997.15 998.53 999.65 1000.63 1001.94 1003.62 1004.78 1005.92 1006.75 1007.52 1008.40 1009.22 1010.07 1010.33 1010.33 1010.36 1010.76 1011.14 1011.33 1011.40 1011.66 1011.68 1011.61 1011.76 1012.03 1012.04 1012.31 1012.32 1012.75 1012.93 1013.26 1013.47 1013.42 1013.88 1013.89 1014.08 1014.51 1014.74 1015.06 1015.57 1015.69 1015.93
997.80 998.05 998.61 998.29 997.96 997.45 996.57 998.93 999.88 1000.66 1001.38 1002.50 1003.49 1004.54 1005.94 1006.79 1007.65 1008.60 1009.67 1010.72 1011.39 1011.88 1011.99 1012.08 1012.27 1012.46 1012.48 1012.45 1012.53 1012.75 1012.74 1012.87 1013.12 1013.24 1013.27 1013.54 1013.80 1013.99 1014.34 1014.50 1014.79 1015.02 1015.19 1015.51 1015.73 1016.06 1016.34 1016.41 1016.55
997.12 997.97 998.50 998.23 998.12 997.60 997.25 998.28 999.72 1001.13 1002.12 1003.09 1003.70 1004.40 1005.81 1006.87 1007.75 1008.77 1009.65 1010.48 1011.27 1011.99 1012.44 1012.61 1012.89 1013.12 1013.26 1013.25 1013.36 1013.57 1013.83 1013.80 1013.96 1014.11 1014.36 1014.45 1014.86 1015.04 1015.11 1015.49 1015.77 1015.97 1016.16 1016.31 1016.53 1016.77 1017.00 1016.97 1017.12
997.09 997.05 997.58 998.10 998.21 997.66 998.71 999.62 998.34 1000.73 1002.21 1003.71 1003.97 1004.59 1005.71 1006.55 1007.70 1008.80 1009.42 1010.11 1011.00 1012.10 1012.79 1013.26 1013.47 1013.53 1013.73 1013.84 1014.22 1014.51 1014.79 1014.90 1014.95 1014.92 1015.07 1015.33 1015.46 1015.66 1015.90 1016.16 1016.37 1016.55 1016.84 1016.96 1017.00 1017.21 1017.32 1017.43 1017.58
996.70 996.71 997.08 997.36 997.94 997.87 998.83 1000.46 1000.29 1003.60 1004.57 1002.73 1004.90 1004.83 1006.17 1007.06 1007.75 1008.57 1009.27 1009.97 1010.94 1012.16 1013.30 1014.05 1014.30 1014.30 1014.34 1014.40 1015.03 1015.48 1015.69 1015.79 1015.77 1015.78 1015.72 1015.86 1016.05 1016.25 1016.45 1016.67 1016.78 1016.95 1017.10 1017.17 1017.33 1017.29 1017.38 1017.83 1017.88
Wind_Speed
6 10 10 10 6 8 3 18 17 14 11 15 13 11 20 15 10 10 14 20 23 20 16 15 13 13 12 12 11 11 8 10 9 9 9 9 9 8 8 8 8 10 9 9 8 8 8 8 6
9 15 10 6 3 7 11 17 17 12 11 10 6 12 21 19 15 17 14 20 22 18 13 14 13 11 12 12 12 9 9 9 9 8 8 8 9 8 7 7 8 8 9 8 7 7 7 6 4
11 13 7 4 4 7 10 16 14 12 10 7 14 13 15 12 15 13 18 21 20 15 15 14 13 10 12 11 9 9 8 8 8 8 8 8 8 8 8 8 5 9 9 8 8 7 7 6 5
8 9 9 10 11 15 12 12 17 14 12 10 7 13 8 13 8 18 19 20 17 17 17 15 12 10 12 11 11 9 9 7 7 7 7 7 8 7 7 7 9 8 8 8 7 7 7 7 6
11 8 3 12 10 18 11 7 3 12 18 8 18 16 12 11 17 18 18 17 17 19 16 15 12 11 12 12 11 10 9 7 7 7 7 7 7 7 7 7 7 7 7 7 7 6 5 5 4
8 13 4 17 17 17 9 10 11 14 10 8 19 16 11 13 16 17 17 17 18 18 16 15 12 12 12 11 10 10 9 8 8 7 7 7 6 6 6 6 6 5 5 4 4 4 3 3 3
14 14 13 13 10 17 9 16 12 10 17 12 9 16 12 15 16 16 16 16 17 19 17 14 13 11 13 11 10 9 8 8 8 7 6 7 6 6 7 6 5 4 4 3 1 1 1 1 2
13 14 18 15 15 6 6 15 11 12 10 10 8 10 15 16 17 15 15 15 16 19 17 15 14 12 11 10 11 10 8 7 7 6 6 7 8 8 6 6 5 4 3 2 2 1 3 4 8
15 13 6 8 21 14 3 15 15 8 14 13 11 18 19 19 18 16 15 14 13 15 17 16 15 12 12 12 10 9 8 7 6 7 7 6 7 9 11 7 8 5 3 3 4 4 7 9 9
11 13 7 11 13 6 12 4 11 1 20 16 15 20 19 19 17 16 15 13 14 13 16 16 13 13 12 11 12 9 9 7 7 7 8 7 8 5 9 9 10 8 7 6 7 9 11 8 7
13 14 4 22 12 9 6 12 7 6 12 19 16 18 17 17 14 15 14 14 13 12 8 15 12 9 12 13 8 6 7 6 6 8 7 9 5 5 5 6 5 5 9 6 8 8 7 9 9
14 15 12 5 7 4 9 6 4 11 14 19 14 18 15 15 14 13 12 12 14 12 10 8 11 6 1 11 7 7 7 6 6 8 7 3 1 4 4 6 8 8 6 9 8 7 8 8 4
14 13 15 9 3 6 5 5 6 17 15 17 17 16 15 14 14 13 13 11 12 12 11 5 10 4 1 3 4 3 4 5 5 6 8 5 4 4 3 4 3 3 5 5 6 5 5 5 6
15 9 16 10 8 9 8 6 8 15 16 17 15 15 13 13 14 11 13 13 10 13 11 9 12 7 5 3 3 3 3 2 3 3 6 8 4 3 2 2 3 4 4 4 4 1 2 4 5
18 16 10 17 12 8 10 9 9 15 16 14 16 14 13 13 14 12 11 12 11 12 14 8 7 11 6 6 3 3 4 5 3 4 4 7 6 5 3 4 4 5 5 3 2 4 4 5 5
13 15 14 16 15 13 8 6 18 12 17 16 15 14 12 13 15 13 10 10 10 10 14 10 12 13 10 6 5 4 5 4 4 4 4 7 6 6 4 4 5 5 4 2 2 3 4 5 6
13 13 18 19 19 15 16 12 3 8 9 17 16 14 13 12 12 12 13 11 12 6 14 12 8 10 13 9 6 5 6 4 4 3 4 6 8 8 6 5 5 6 4 4 4 4 3 4 5
14 16 16 17 19 18 13 14 22 14 12 9 16 16 14 13 12 12 14 13 13 9 10 11 8 7 10 8 6 5 5 5 4 4 5 6 6 9 6 6 7 6 4 4 3 5 4 3 4
21 16 18 17 14 18 16 12 17 10 9 6 9 15 15 15 12 12 11 13 11 13 9 10 10 9 5 6 7 7 7 5 5 6 7 7 5 6 6 7 6 6 6 7 8 4 5 3 2
20 20 14 16 9 8 13 13 4 12 10 9 3 2 9 15 16 13 11 11 12 10 11 9 9 8 7 5 4 5 5 7 6 7 8 9 8 7 6 5 6 6 5 7 9 6 4 3 2
19 18 14 16 8 5 6 13 9 13 13 10 3 2 2 1 15 15 13 11 11 12 11 11 10 7 8 8 4 4 4 4 6 5 3 7 10 11 7 6 5 4 4 6 6 6 6 6 4
16 13 17 16 14 10 15 14 15 14 13 12 8 2 5 3 4 9 12 12 11 11 14 14 13 13 10 11 8 8 6 6 6 6 6 6 8 7 8 7 6 5 5 6 4 4 5 7 8
14 18 19 18 15 15 18 12 12 20 18 13 11 8 7 4 7 8 14 12 11 8 7 5 3 8 9 8 9 7 7 6 6 5 3 7 3 4 2 1 1 3 4 6 6 6 7 5 4
18 17 9 8 10 13 16 15 13 14 21 18 13 13 9 8 8 11 12 15 11 8 8 9 8 7 6 3 2 3 5 4 5 5 5 3 5 7 11 11 8 6 5 5 5 5 6 6 7
20 16 8 10 12 14 18 18 2 16 21 20 16 14 12 8 12 12 14 11 13 14 13 11 12 11 8 7 5 5 4 2 3 2 7 7 6 6 7 8 9 8 9 10 9 10 12 10 7
18 17 12 18 13 15 18 17 13 16 19 20 18 16 15 13 13 13 12 11 11 14 15 14 14 14 14 13 14 12 13 7 7 9 6 6 6 8 10 11 11 12 12 10 10 9 9 10 8
16 20 19 21 20 12 11 17 15 18 20 21 21 20 16 15 14 14 15 13 11 10 11 12 12 11 11 10 11 10 9 11 9 10 9 8 9 9 11 13 13 13 13 12 11 8 7 7 6
24 15 15 13 17 16 9 21 14 21 21 21 21 20 19 16 16 15 13 14 13 12 10 9 9 9 9 10 9 8 9 10 10 10 11 12 12 12 13 13 12 12 10 9 8 7 6 7 5
17 21 14 13 11 14 7 6 13 23 22 22 22 19 17 17 16 14 13 14 15 13 13 13 11 11 9 10 11 11 10 10 10 9 10 10 10 10 11 10 10 10 8 7 7 6 5 5 5
20 19 18 10 12 10 4 6 18 16 7 22 14 19 16 15 15 13 13 14 14 14 14 10 8 8 8 10 12 11 10 9 9 9 8 10 10 10 10 10 7 9 6 5 4 4 7 11 9
Wind_Direction
257 241 233 258 282 232 66 74 61 40 72 50 42 82 70 47 80 113 133 107 116 122 128 126 126 125 122 108 100 98 100 100 92 98 99 98 103 104 98 109 105 99 91 85 81 80 76 74 67
274 272 251 270 358 332 64 76 73 69 51 126 72 88 82 76 96 114 111 113 114 124 136 130 132 134 118 112 105 104 93 91 92 91 89 84 106 102 92 101 113 103 100 91 80 74 65 57 38
257 261 276 246 211 211 68 70 106 96 58 12 110 41 49 100 117 121 116 115 122 131 121 125 137 143 123 112 113 113 106 100 98 93 91 89 89 96 98 82 113 113 103 96 90 84 70 45 32
260 226 238 268 268 80 66 88 77 55 101 39 60 86 76 100 96 118 132 122 130 138 122 134 143 142 119 130 126 124 116 111 106 101 98 93 93 94 102 98 95 101 98 92 90 87 69 57 61
240 269 287 326 271 98 102 107 82 110 84 66 81 78 90 85 108 134 131 137 142 123 126 138 146 133 133 128 131 128 122 121 116 110 110 104 96 103 109 114 112 112 110 101 99 96 77 54 43
278 244 247 217 289 101 85 125 103 90 95 131 111 103 94 114 139 141 141 148 143 125 140 140 148 143 131 134 134 132 131 130 121 118 117 115 114 116 120 125 127 125 119 110 110 113 95 67 32
263 286 280 171 253 56 80 53 64 53 53 80 174 98 126 146 148 147 152 149 140 131 132 143 149 154 130 142 140 137 134 129 127 132 132 132 139 143 139 135 131 133 140 140 120 114 115 77 304
256 295 300 344 57 323 138 107 83 62 69 119 50 126 147 148 156 153 154 150 142 140 144 152 150 158 159 155 149 144 140 137 143 165 171 169 171 165 164 158 153 159 168 187 186 255 263 248 241
273 277 299 33 136 231 19 104 114 125 116 85 66 111 137 147 155 164 153 154 151 150 149 155 155 161 177 152 151 150 151 153 170 198 202 207 214 179 161 140 151 170 200 214 236 238 245 249 257
248 270 41 3 186 193 100 61 77 261 123 109 98 113 131 154 159 164 159 162 158 163 154 155 155 165 182 152 144 169 170 181 195 199 179 217 222 146 155 150 162 179 201 219 231 238 249 258 257
254 267 315 196 36 353 21 43 27 66 98 128 120 127 143 157 165 168 165 169 162 167 163 153 153 171 177 121 159 184 168 184 194 212 182 219 196 164 171 155 179 195 206 205 207 224 235 232 231
246 267 294 6 111 323 353 346 91 86 73 105 120 133 149 163 169 172 170 168 160 164 156 149 143 148 308 135 165 187 174 178 193 193 189 224 235 180 228 170 188 197 180 210 192 205 217 227 317
245 253 263 261 233 277 333 262 64 103 105 105 119 135 153 166 167 176 165 164 164 161 144 159 127 129 150 330 158 255 170 172 197 168 175 243 203 189 226 281 200 232 172 194 208 223 195 203 217
255 239 268 256 237 238 268 267 184 103 111 120 136 136 149 161 167 167 163 167 178 156 143 174 150 150 176 242 299 200 299 157 183 248 174 190 251 254 245 233 283 266 276 254 216 210 287 239 250
280 274 261 258 238 232 246 268 187 140 135 140 130 141 140 158 164 163 175 162 176 156 148 157 171 155 183 194 240 264 212 223 229 209 248 179 185 272 259 261 221 242 242 239 9 342 317 297 279
269 254 257 234 235 223 238 324 130 151 146 150 142 132 149 158 159 161 167 158 157 167 149 166 188 162 167 197 215 238 250 257 213 218 204 189 186 206 248 241 275 263 258 257 179 204 233 265 263
244 240 230 257 198 224 210 127 103 203 180 146 139 148 157 162 160 156 160 163 151 173 152 167 191 196 169 186 211 231 256 264 273 269 221 200 198 210 208 250 250 252 263 276 203 215 236 267 313
217 228 252 227 212 205 217 170 190 168 176 167 143 159 161 167 170 160 166 167 157 178 155 164 182 214 166 173 190 233 229 247 252 248 268 247 197 203 206 221 245 274 278 263 230 217 219 200 256
264 216 217 251 215 186 226 217 167 154 171 125 163 156 163 167 173 159 181 167 170 168 170 172 176 188 198 183 185 205 233 229 225 229 238 255 253 228 196 220 237 230 242 265 283 224 244 265 207
249 264 252 230 175 171 186 237 182 131 105 77 14 339 158 164 157 167 177 176 177 174 179 183 184 184 197 210 203 220 207 224 228 216 223 216 218 232 233 224 228 242 260 236 243 271 276 260 272
226 247 252 260 141 132 239 252 157 137 132 113 79 319 42 276 160 164 177 186 187 182 182 187 196 202 197 213 213 221 243 284 288 279 240 211 208 211 211 226 237 268 275 275 288 255 254 259 265
244 230 256 254 245 200 189 234 236 169 158 150 144 118 84 45 288 176 171 183 194 195 186 193 191 194 204 196 211 244 253 253 228 235 250 251 212 200 215 210 217 226 242 255 283 307 268 268 252
231 244 218 247 254 255 193 220 261 187 153 158 126 127 109 86 47 86 70 46 48 37 45 79 188 194 202 201 210 230 247 255 294 255 335 319 79 357 250 268 88 326 330 319 336 307 295 294 308
240 246 292 214 242 241 245 252 240 155 164 137 140 103 90 83 85 71 67 49 38 31 26 41 45 34 36 30 325 240 283 334 314 351 356 354 74 39 38 34 30 15 5 348 354 4 13 17 23
227 228 205 218 227 236 223 226 162 114 127 138 128 121 120 108 80 74 67 59 31 30 52 61 46 40 37 43 33 28 33 356 322 347 48 49 49 46 42 35 32 37 29 39 39 43 54 57 65
213 224 221 209 214 227 225 211 143 114 114 122 122 127 122 116 103 94 94 89 53 39 42 57 55 47 51 54 48 46 48 62 53 47 62 61 49 53 45 54 50 48 52 56 61 71 72 79 76
194 219 230 265 291 273 201 87 116 139 140 136 141 136 130 124 115 111 100 88 87 68 55 58 55 57 51 57 59 53 51 51 52 48 56 55 48 59 54 59 66 64 67 70 68 70 75 73 73
241 197 227 240 256 270 185 156 161 169 162 148 145 136 131 128 122 112 110 112 108 102 106 107 84 83 70 67 63 62 58 48 58 60 59 63 70 72 72 71 67 64 58 57 68 72 67 75 61
216 232 212 239 248 257 153 184 200 163 158 157 148 132 127 125 120 118 109 102 101 85 73 59 55 55 57 63 61 55 59 63 70 73 76 83 88 89 88 83 85 83 86 84 88 85 81 75 65
227 224 228 223 235 266 118 147 84 129 288 110 115 130 123 125 129 114 104 108 106 96 80 77 73 69 78 76 81 75 77 72 69 74 75 83 78 83 83 90 83 102 98 107 99 96 76 66 57